Overview Statistics Trail Chart Weather Telemetry Raw packets
 

This is the latest recevied weather packets stored in our database for station/object DG4CB-13. If no packets are shown the sender has not sent any weather packets the latest 10 day(s).

<< 5 6 7 8 9 10 11 >>
Time Temp. Humidity Pressure Rain* Wind** Luminosity Snow
1788458400 20.56° C 74% 1017.7 hPa - - - -
1788457800 20.56° C 73% 1017.6 hPa - - - -
1788457200 20.56° C 73% 1017.6 hPa - - - -
1788456600 20.56° C 73% 1017.6 hPa - - - -
1788456000 21.11° C 73% 1017.6 hPa - - - -
1788455400 21.11° C 74% 1017.3 hPa - - - -
1788454800 21.11° C 74% 1017.4 hPa - - - -
1788454200 21.11° C 74% 1017.4 hPa - - - -
1788453600 21.11° C 73% 1017.5 hPa - - - -
1788453000 21.11° C 72% 1017.7 hPa - - - -
1788452400 21.11° C 72% 1017.6 hPa - - - -
1788451803 21.11° C 71% 1017.6 hPa - - - -
1788451200 21.67° C 70% 1017.7 hPa - - - -
1788449400 21.67° C 65% 1017.6 hPa - - - -
1788448800 22.22° C 62% 1017.5 hPa - - - -
1788448200 22.22° C 61% 1017.3 hPa - - - -
1788447600 22.22° C 61% 1017.3 hPa - - - -
1788446999 22.22° C 60% 1017.2 hPa - - - -
1788446400 22.22° C 60% 1017.2 hPa - - - -
1788445800 22.22° C 60% 1017.3 hPa - - - -
1788445200 22.22° C 61% 1017.4 hPa - - - -
1788444600 22.22° C 61% 1017.3 hPa - - - -
1788444000 21.67° C 65% 1017.3 hPa - - - -
1788443400 21.11° C 68% 1017.4 hPa - - - -
1788442799 20.56° C 68% 1017.4 hPa - - - -

* Rain since midnight (hover to see other rain measurements)
** Current wind speed in m/s (hover to see current wind gust speed)